Location: St. Louis
(38.6270°N, 90.1994°W)
Time: 19:41:22
(UTC-06:00)

Vanguard 1 - Pass Details

Date: 09 December 2021
Orbit: 652 x 3830 km, 34.2° (Epoch: 21 January)

Event Time Altitude Azimuth Distance (km) Brightness Sun altitude
Exits shadow 03:19:53 65° 223° (SW) 3,762 12.5 -43.5°
Maximum altitude 03:21:40 67° 202° (SSW) 3,660 12.5 -43.2°
Drops below altitude 10° 03:38:16 10° 124° (SE) 5,145 14.2 -40.0°
Sets 03:41:29 0° 122° (ESE) 5,810 14.7 -39.3°
